KT2UU-13 Weather Reports


time (UTC)temp
F
wind
direction
speed
knots
gust
knots
rain 1hr
in
rain 24hr
in
rain mn
in
humidity
%
barometer
mb
20260504235054 74 132 0.0 0.0 0.00 0.00 0.00 46 1014.8
20260504234551 75 132 0.0 0.0 0.00 0.00 0.00 44 1014.7
20260504234049 75 132 0.0 0.0 0.00 0.00 0.00 43 1014.7
20260504233544 76 132 0.0 0.0 0.00 0.00 0.00 44 1014.7
20260504233041 76 132 0.0 0.0 0.00 0.00 0.00 41 1014.8
20260504232538 77 132 0.0 0.0 0.00 0.00 0.00 42 1014.8
20260504232036 77 131 0.0 0.0 0.00 0.00 0.00 41 1014.8
20260504231532 77 126 0.0 0.0 0.00 0.00 0.00 41 1014.7
20260504231028 77 130 0.0 1.7 0.00 0.00 0.00 41 1015.0
20260504230524 77 130 0.9 1.7 0.00 0.00 0.00 41 1014.8
20260504230024 77 130 0.0 0.0 0.00 0.00 0.00 46 1014.7
20260504225520 78 130 0.0 0.9 0.00 0.00 0.00 44 1014.7
20260504225017 77 146 0.0 1.7 0.00 0.00 0.00 43 1014.9
20260504224514 76 130 0.0 0.0 0.00 0.00 0.00 45 1014.7
20260504224011 76 130 0.0 0.0 0.00 0.00 0.00 44 1014.8
20260504223508 76 130 0.0 0.0 0.00 0.00 0.00 43 1014.9
20260504223004 76 130 0.0 0.0 0.00 0.00 0.00 43 1014.9
20260504222500 76 130 0.0 0.9 0.00 0.00 0.00 45 1015.0
20260504221958 77 130 0.0 0.9 0.00 0.00 0.00 41 1015.1
20260504221455 77 129 0.9 0.9 0.00 0.00 0.00 42 1015.1
20260504220952 77 113 0.0 3.5 0.00 0.00 0.00 42 1014.8
20260504220448 77 107 0.0 0.0 0.00 0.00 0.00 42 1014.9
20260504215945 78 97 0.0 1.7 0.00 0.00 0.00 42 1015.0
20260504215442 78 211 0.0 0.0 0.00 0.00 0.00 43 1014.9
20260504214939 77 110 0.9 0.9 0.00 0.00 0.00 44 1014.8
20260504214435 77 115 1.7 3.5 0.00 0.00 0.00 45 1014.9
20260504213932 77 4 0.0 0.9 0.00 0.00 0.00 47 1014.8
20260504213428 77 100 0.9 1.7 0.00 0.00 0.00 44 1015.0
20260504212926 76 121 0.0 0.0 0.00 0.00 0.00 46 1015.1
20260504212421 75 120 0.9 3.5 0.00 0.00 0.00 46 1015.1
20260504211919 76 157 0.9 1.7 0.00 0.00 0.00 46 1015.1
20260504211415 77 165 0.0 1.7 0.00 0.00 0.00 44 1015.0
20260504210912 78 142 1.7 2.6 0.00 0.00 0.00 43 1014.9
20260504210409 77 146 0.9 0.9 0.00 0.00 0.00 44 1015.1
20260504205907 76 145 0.0 1.7 0.00 0.00 0.00 43 1015.0
20260504205404 76 131 0.9 3.5 0.00 0.00 0.00 42 1015.1
20260504204902 77 151 1.7 2.6 0.00 0.00 0.00 41 1015.2
20260504204400 78 147 0.9 1.7 0.00 0.00 0.00 40 1015.2
20260504203900 77 134 0.0 2.6 0.00 0.00 0.00 44 1015.1
20260504203356 77 155 0.9 5.2 0.00 0.00 0.00 43 1015.1
20260504202852 77 132 0.9 1.7 0.00 0.00 0.00 44 1015.1
20260504202349 76 174 1.7 5.2 0.00 0.00 0.00 43 1015.1
20260504201845 78 194 2.6 7.0 0.00 0.00 0.00 44 1015.3
20260504201343 79 97 0.9 1.7 0.00 0.00 0.00 43 1015.3
20260504200840 78 129 0.9 1.7 0.00 0.00 0.00 41 1015.4
20260504200337 78 124 0.0 0.9 0.00 0.00 0.00 45 1015.4
20260504195833 77 98 0.0 0.0 0.00 0.00 0.00 45 1015.4
20260504195329 77 156 1.7 1.7 0.00 0.00 0.00 42 1015.6
20260504194826 78 180 3.5 3.5 0.00 0.00 0.00 40 1015.9
20260504194322 77 217 0.0 1.7 0.00 0.00 0.00 41 1015.7
20260504193818 77 52 0.9 1.7 0.00 0.00 0.00 43 1015.9
20260504193316 77 124 2.6 3.5 0.00 0.00 0.00 43 1015.8
20260504192814 78 102 0.0 2.6 0.00 0.00 0.00 46 1015.8
20260504192312 78 18 0.0 0.0 0.00 0.00 0.00 48 1016.0
20260504191810 76 18 0.0 0.0 0.00 0.00 0.00 49 1016.1
20260504191307 76 131 0.0 0.0 0.00 0.00 0.00 46 1016.3
20260504190803 76 131 0.0 1.7 0.00 0.00 0.00 46 1016.3
20260504190259 75 145 0.0 0.0 0.00 0.00 0.00 49 1016.3
20260504185755 76 145 0.0 2.6 0.00 0.00 0.00 46 1016.5
20260504185253 74 149 0.0 1.7 0.00 0.00 0.00 46 1016.4
20260504184749 76 200 0.9 2.6 0.00 0.00 0.00 48 1016.4
20260504184244 74 169 3.5 5.2 0.00 0.00 0.00 46 1016.6
20260504183740 75 203 1.7 2.6 0.00 0.00 0.00 49 1016.6
20260504183237 75 221 1.7 5.2 0.00 0.00 0.00 47 1016.4
20260504182736 74 164 0.0 1.7 0.00 0.00 0.00 45 1016.8
20260504182232 75 142 1.7 2.6 0.00 0.00 0.00 51 1016.6
20260504181730 74 9 4.3 6.1 0.00 0.00 0.00 48 1016.8
20260504181227 74 4 0.0 0.0 0.00 0.00 0.00 49 1016.9
20260504180726 74 110 0.0 1.7 0.00 0.00 0.00 50 1016.8
20260504180225 73 219 0.0 1.7 0.00 0.00 0.00 47 1017.0
20260504175722 73 192 3.5 5.2 0.00 0.00 0.00 48 1017.0
20260504175218 72 186 1.7 1.7 0.00 0.00 0.00 49 1017.1
20260504174716 72 120 1.7 1.7 0.00 0.00 0.00 51 1017.2
20260504174214 73 119 1.7 2.6 0.00 0.00 0.00 48 1017.3
20260504173710 73 142 0.0 0.9 0.00 0.00 0.00 51 1017.2
20260504173208 72 110 0.0 0.9 0.00 0.00 0.00 50 1017.4
20260504172704 73 98 2.6 3.5 0.00 0.00 0.00 50 1017.6
20260504172200 72 250 1.7 1.7 0.00 0.00 0.00 50 1017.4
20260504171657 71 124 0.9 1.7 0.00 0.00 0.00 50 1017.5
20260504171154 71 195 3.5 6.1 0.00 0.00 0.00 49 1017.8
20260504170650 72 206 1.7 2.6 0.00 0.00 0.00 49 1017.7
20260504170148 71 6 0.0 2.6 0.00 0.00 0.00 52 1017.7
20260504151033 65 133 0.0 0.9 0.00 0.00 0.00 59 1018.7
20260504150531 64 16 0.9 1.7 0.00 0.00 0.00 61 1018.6
20260504140957 63 211 0.0 0.9 0.00 0.00 0.00 68 1019.2
20260504140454 62 348 0.0 0.9 0.00 0.00 0.00 69 1019.0
20260504130418 58 213 0.0 0.9 0.00 0.00 0.00 74 1018.9
20260504110305 41 181 0.0 0.0 0.00 0.00 0.00 98 1018.7
20260504100223 41 181 0.0 0.0 0.00 0.00 0.00 97 1018.3
20260504081616 44 181 0.0 0.0 0.00 0.00 0.00 95 1018.2
20260504081112 44 181 0.0 0.0 0.00 0.00 0.00 95 1017.9
20260504080609 44 181 0.0 0.0 0.00 0.00 0.00 95 1018.2
20260504080105 43 181 0.0 0.0 0.00 0.00 0.00 94 1018.1
20260504050421 47 181 0.0 0.0 0.00 0.00 0.00 85 1019.2
20260504045918 47 181 0.0 0.0 0.00 0.00 0.00 85 1019.2
20260504045414 48 181 0.0 0.0 0.00 0.00 0.00 86 1019.2
20260504044910 47 180 0.0 0.0 0.00 0.00 0.00 86 1019.2
20260504044408 48 181 0.0 0.0 0.00 0.00 0.00 85 1019.1
20260504043905 48 181 0.0 0.0 0.00 0.00 0.00 84 1019.3
20260504043402 48 180 0.0 0.0 0.00 0.00 0.00 84 1019.1
20260504042900 48 180 0.0 0.0 0.00 0.00 0.00 84 1019.1
20260504042355 49 175 0.0 0.0 0.00 0.00 0.00 84 1019.1
20260504041852 49 181 0.0 0.0 0.00 0.00 0.00 84 1019.2
20260504041348 49 181 0.0 0.0 0.00 0.00 0.00 84 1019.1
20260504040845 50 181 0.0 0.0 0.00 0.00 0.00 83 1018.9
20260504040343 50 181 0.0 0.0 0.00 0.00 0.00 82 1019.0
20260504035838 49 181 0.0 0.0 0.00 0.00 0.00 83 1019.0
20260504035337 49 181 0.0 0.0 0.00 0.00 0.00 85 1019.1
20260504034832 49 181 0.0 0.0 0.00 0.00 0.00 84 1019.3
20260504034330 50 181 0.0 0.0 0.00 0.00 0.00 83 1019.0
20260504033827 50 181 0.0 0.0 0.00 0.00 0.00 83 1019.3
20260504033326 50 181 0.0 0.0 0.00 0.00 0.00 83 1019.3
20260504032821 50 181 0.0 0.0 0.00 0.00 0.00 82 1019.1
20260504032319 50 181 0.0 0.0 0.00 0.00 0.00 81 1018.9
20260504031815 50 181 0.0 0.0 0.00 0.00 0.00 82 1019.0
20260504031313 51 181 0.0 0.0 0.00 0.00 0.00 82 1019.0
20260504030809 51 176 0.0 0.0 0.00 0.00 0.00 81 1019.1
20260504030306 50 181 0.0 0.9 0.00 0.00 0.00 79 1018.7
20260504025802 50 181 0.0 0.0 0.00 0.00 0.00 82 1018.9
20260504025259 50 181 0.0 0.0 0.00 0.00 0.00 82 1019.2
20260504024756 51 181 0.0 0.0 0.00 0.00 0.00 81 1019.2
20260504024253 51 181 0.0 0.0 0.00 0.00 0.00 81 1019.1
20260504023750 52 181 0.0 0.0 0.00 0.00 0.00 81 1019.3
20260504023246 52 175 0.0 0.0 0.00 0.00 0.00 79 1019.1
20260504022742 52 181 0.0 0.0 0.00 0.00 0.00 78 1018.9
20260504022238 53 181 0.0 0.0 0.00 0.00 0.00 78 1019.0
20260504021735 53 181 0.0 0.9 0.00 0.00 0.00 77 1018.8
20260504021232 53 181 0.0 0.0 0.00 0.00 0.00 76 1018.9
20260504020724 53 181 0.0 0.0 0.00 0.00 0.00 75 1018.9
20260504020220 54 181 0.0 0.0 0.00 0.00 0.00 74 1018.9
20260504015716 54 181 0.0 0.0 0.00 0.00 0.00 74 1018.7
20260504015212 54 181 0.0 0.0 0.00 0.00 0.00 73 1018.6
20260504014708 54 176 0.0 0.0 0.00 0.00 0.00 73 1018.6
20260504014206 55 181 0.0 0.0 0.00 0.00 0.00 71 1018.7
20260504013703 55 181 0.0 0.0 0.00 0.00 0.00 69 1018.5
20260504013200 56 181 0.0 0.0 0.00 0.00 0.00 68 1018.7
20260504012657 56 181 0.0 0.0 0.00 0.00 0.00 68 1018.5
20260504012155 57 181 0.0 0.0 0.00 0.00 0.00 64 1018.4
20260504011651 58 181 0.0 0.0 0.00 0.00 0.00 63 1018.3
20260504011148 58 181 0.0 0.0 0.00 0.00 0.00 61 1018.3
20260504010644 59 181 0.0 0.0 0.00 0.00 0.00 58 1018.2
20260504010140 60 176 0.0 0.0 0.00 0.00 0.00 57 1018.1
20260504005637 61 181 0.0 0.9 0.00 0.00 0.00 53 1018.3
20260504005133 61 181 1.7 1.7 0.00 0.00 0.00 51 1018.0
20260504004632 61 197 0.9 1.7 0.00 0.00 0.00 52 1018.1
20260504004128 62 183 0.0 0.9 0.00 0.00 0.00 52 1018.0
20260504003625 62 183 0.0 1.7 0.00 0.00 0.00 52 1018.0
20260504003121 62 194 0.0 0.0 0.00 0.00 0.00 54 1017.9
20260504002618 62 195 0.0 0.0 0.00 0.00 0.00 56 1017.8
20260504002116 63 195 0.0 0.0 0.00 0.00 0.00 52 1018.0
20260504001614 64 195 0.0 0.9 0.00 0.00 0.00 48 1018.3
20260504001109 64 185 0.0 0.9 0.00 0.00 0.00 47 1018.2
20260504000607 64 193 0.0 0.0 0.00 0.00 0.00 47 1018.0
20260504000104 65 193 0.0 0.0 0.00 0.00 0.00 47 1018.2
20260503235603 65 193 0.0 0.9 0.00 0.00 0.00 47 1018.2